When you browse on this site, cookies collect data to enhance your experience and personalize the content and advertising you see.
Visit our Privacy Policy to learn more. By continuing to use the site, you agree to this use of cookies and data.
  • în România
  • Lista ţărilor
  • Pe 7 zile
  • Temperatura apei
  • Meteo pe hartă
  • Widget-uri
  • user-avatar
    Intrare

    Meteo pe oră la Zenica

    Astăzi, 22 Ianuarie, Miercuri

    Timp Temperatura Precipitaţii Vânt Presiune Umiditate
    00:00 0°C° 0 mm 1 m/s 688 mmHg 46%
    01:00 -1°C° 0 mm 0 m/s 688 mmHg 42%
    02:00 -1°C° 0 mm 0 m/s 688 mmHg 40%
    03:00 0°C° 0 mm 1 m/s 687 mmHg 37%
    04:00 0°C° 0 mm 1 m/s 687 mmHg 34%
    05:00 0°C° 0 mm 1 m/s 687 mmHg 33%
    06:00 +1°C° 0 mm 1 m/s 686 mmHg 31%
    07:00 +1°C° 0 mm 1 m/s 686 mmHg 29%
    08:00 +2°C° 0 mm 1 m/s 686 mmHg 30%
    09:00 +3°C° 0 mm 1 m/s 686 mmHg 31%
    10:00 +5°C° 0 mm 1 m/s 686 mmHg 32%
    11:00 +6°C° 0 mm 1 m/s 686 mmHg 34%
    12:00 +7°C° 0 mm 1 m/s 686 mmHg 37%
    13:00 +8°C° 0 mm 1 m/s 686 mmHg 40%
    14:00 +7°C° 0 mm 1 m/s 685 mmHg 41%
    15:00 +5°C° 0 mm 1 m/s 684 mmHg 42%
    16:00 +4°C° 0 mm 1 m/s 684 mmHg 43%
    17:00 +3°C° 0 mm 1 m/s 684 mmHg 42%
    18:00 +3°C° 0 mm 1 m/s 684 mmHg 42%
    19:00 +1°C° 0 mm 0 m/s 684 mmHg 41%
    20:00 +1°C° 0 mm 1 m/s 684 mmHg 46%
    21:00 0°C° 0 mm 1 m/s 684 mmHg 52%
    22:00 0°C° 0 mm 1 m/s 684 mmHg 57%
    23:00 0°C° 0 mm 1 m/s 684 mmHg 57%

    Mâine, 23 Ianuarie, Joi

    Timp Temperatura Precipitaţii Vânt Presiune Umiditate
    00:00 -1°C° 0 mm 1 m/s 684 mmHg 58%
    01:00 -1°C° 0 mm 1 m/s 685 mmHg 58%
    02:00 -1°C° 0 mm 1 m/s 685 mmHg 62%
    03:00 -1°C° 0 mm 1 m/s 684 mmHg 67%
    04:00 -1°C° 0 mm 1 m/s 684 mmHg 72%
    05:00 -1°C° 0 mm 1 m/s 684 mmHg 77%
    06:00 -1°C° 0 mm 1 m/s 685 mmHg 82%
    07:00 -2°C° 0 mm 1 m/s 685 mmHg 87%
    08:00 -1°C° 0 mm 1 m/s 685 mmHg 83%
    09:00 +1°C° 0 mm 1 m/s 686 mmHg 79%
    10:00 +2°C° 0 mm 1 m/s 686 mmHg 76%
    11:00 +2°C° 0 mm 1 m/s 686 mmHg 72%
    12:00 +3°C° 0 mm 1 m/s 686 mmHg 68%
    13:00 +4°C° 0 mm 1 m/s 686 mmHg 65%
    14:00 +3°C° 0 mm 1 m/s 685 mmHg 69%
    15:00 +2°C° 0 mm 1 m/s 685 mmHg 73%
    16:00 +1°C° 0 mm 1 m/s 684 mmHg 78%
    17:00 0°C° 0 mm 1 m/s 684 mmHg 79%
    18:00 -1°C° 0 mm 1 m/s 684 mmHg 80%
    19:00 -2°C° 0 mm 0 m/s 684 mmHg 82%
    20:00 -2°C° 0 mm 0 m/s 683 mmHg 78%
    21:00 -2°C° 0 mm 0 m/s 683 mmHg 75%
    22:00 -2°C° 0 mm 0 m/s 683 mmHg 71%
    23:00 -1°C° 0 mm 1 m/s 683 mmHg 67%

    Poimâine, 24 Ianuarie, Vineri

    Timp Temperatura Precipitaţii Vânt Presiune Umiditate
    00:00 -1°C° 0 mm 1 m/s 683 mmHg 63%
    01:00 -1°C° 0 mm 1 m/s 683 mmHg 58%
    02:00 0°C° 0 mm 1 m/s 683 mmHg 55%
    03:00 0°C° 0 mm 1 m/s 683 mmHg 52%
    04:00 0°C° 0 mm 1 m/s 682 mmHg 48%
    05:00 0°C° 0 mm 1 m/s 683 mmHg 47%
    06:00 -2°C° 0 mm 2 m/s 683 mmHg 46%
    07:00 -2°C° 0 mm 2 m/s 683 mmHg 45%
    08:00 +1°C° 0 mm 2 m/s 683 mmHg 46%
    09:00 +2°C° 0 mm 2 m/s 684 mmHg 47%
    10:00 +4°C° 0 mm 2 m/s 684 mmHg 47%
    11:00 +5°C° 0 mm 2 m/s 684 mmHg 48%
    12:00 +6°C° 0 mm 2 m/s 684 mmHg 50%
    13:00 +7°C° 0 mm 2 m/s 684 mmHg 51%
    14:00 +5°C° 0 mm 2 m/s 683 mmHg 57%
    15:00 +4°C° 0 mm 2 m/s 683 mmHg 63%
    16:00 +3°C° 0 mm 2 m/s 682 mmHg 69%
    17:00 +2°C° 0 mm 2 m/s 682 mmHg 75%
    18:00 +1°C° 0 mm 2 m/s 682 mmHg 82%
    19:00 -1°C° 0 mm 2 m/s 682 mmHg 88%
    20:00 -1°C° 0 mm 2 m/s 682 mmHg 90%
    21:00 -1°C° 0 mm 2 m/s 682 mmHg 92%
    22:00 +1°C° 0 mm 2 m/s 682 mmHg 94%
    23:00 +1°C° 0 mm 2 m/s 682 mmHg 94%

    25 Ianuarie, Sâmbătă

    Timp Temperatura Precipitaţii Vânt Presiune Umiditate
    00:00 +1°C° 0 mm 2 m/s 681 mmHg 94%
    01:00 +1°C° 0 mm 2 m/s 681 mmHg 94%
    02:00 +1°C° 0 mm 2 m/s 681 mmHg 94%
    03:00 +1°C° 0 mm 2 m/s 681 mmHg 94%
    04:00 +1°C° 0 mm 2 m/s 681 mmHg 94%
    05:00 +1°C° 0 mm 2 m/s 680 mmHg 94%
    06:00 +2°C° 0 mm 2 m/s 680 mmHg 94%
    07:00 +2°C° 0 mm 2 m/s 680 mmHg 93%
    08:00 +2°C° 0 mm 2 m/s 681 mmHg 92%
    09:00 +3°C° 0 mm 2 m/s 681 mmHg 91%
    10:00 +4°C° 0 mm 2 m/s 681 mmHg 89%
    11:00 +4°C° 0.1 mm 2 m/s 681 mmHg 89%
    12:00 +5°C° 0.1 mm 2 m/s 681 mmHg 88%
    13:00 +5°C° 0.1 mm 2 m/s 681 mmHg 87%
    14:00 +5°C° 0 mm 2 m/s 681 mmHg 89%
    15:00 +4°C° 0 mm 2 m/s 680 mmHg 90%
    16:00 +5°C° 0 mm 1 m/s 680 mmHg 92%
    17:00 +3°C° 0 mm 2 m/s 680 mmHg 92%
    18:00 +3°C° 0 mm 2 m/s 680 mmHg 93%
    19:00 +2°C° 0 mm 2 m/s 680 mmHg 93%
    20:00 +2°C° 0 mm 2 m/s 680 mmHg 93%
    21:00 +1°C° 0 mm 2 m/s 680 mmHg 94%
    22:00 +1°C° 0 mm 2 m/s 680 mmHg 94%
    23:00 +1°C° 0 mm 2 m/s 680 mmHg 94%

    26 Ianuarie, Duminică

    Timp Temperatura Precipitaţii Vânt Presiune Umiditate
    00:00 +1°C° 0 mm 2 m/s 680 mmHg 94%
    01:00 +1°C° 0 mm 2 m/s 680 mmHg 94%
    02:00 +1°C° 0 mm 2 m/s 680 mmHg 94%
    03:00 +3°C° 0 mm 1 m/s 679 mmHg 94%
    04:00 +3°C° 0 mm 1 m/s 679 mmHg 94%
    05:00 +3°C° 0 mm 1 m/s 679 mmHg 93%
    06:00 +3°C° 0 mm 1 m/s 679 mmHg 93%
    07:00 +3°C° 0 mm 1 m/s 679 mmHg 92%
    08:00 +4°C° 0.1 mm 1 m/s 679 mmHg 92%
    09:00 +4°C° 0.1 mm 1 m/s 680 mmHg 91%
    10:00 +5°C° 0.1 mm 1 m/s 680 mmHg 90%
    11:00 +5°C° 0.7 mm 1 m/s 679 mmHg 92%
    12:00 +4°C° 0.7 mm 0 m/s 679 mmHg 94%
    13:00 +3°C° 0.7 mm 0 m/s 679 mmHg 96%
    14:00 +3°C° 0.9 mm 0 m/s 679 mmHg 96%
    15:00 +3°C° 0.9 mm 0 m/s 679 mmHg 96%
    16:00 +3°C° 0.9 mm 0 m/s 679 mmHg 97%
    17:00 +2°C° 0 mm 0 m/s 679 mmHg 96%
    18:00 +2°C° 0 mm 0 m/s 679 mmHg 95%
    19:00 +1°C° 0 mm 0 m/s 679 mmHg 95%
    20:00 +2°C° 0 mm 1 m/s 679 mmHg 94%
    21:00 +2°C° 0 mm 1 m/s 680 mmHg 93%
    22:00 +2°C° 0 mm 1 m/s 680 mmHg 92%
    23:00 +2°C° 0 mm 1 m/s 680 mmHg 91%

    27 Ianuarie, Luni

    Timp Temperatura Precipitaţii Vânt Presiune Umiditate
    00:00 +1°C° 0 mm 0 m/s 680 mmHg 90%
    01:00 +1°C° 0 mm 0 m/s 680 mmHg 89%
    02:00 +1°C° 0 mm 0 m/s 680 mmHg 88%
    03:00 0°C° 0 mm 0 m/s 680 mmHg 88%
    04:00 0°C° 0 mm 0 m/s 680 mmHg 87%
    05:00 0°C° 0 mm 0 m/s 681 mmHg 88%
    06:00 0°C° 0 mm 0 m/s 681 mmHg 88%
    07:00 0°C° 0 mm 0 m/s 681 mmHg 88%
    08:00 +2°C° 0 mm 0 m/s 682 mmHg 85%
    09:00 +3°C° 0 mm 0 m/s 683 mmHg 82%
    10:00 +5°C° 0 mm 0 m/s 683 mmHg 79%
    11:00 +5°C° 0 mm 0 m/s 683 mmHg 77%
    12:00 +7°C° 0 mm 1 m/s 683 mmHg 75%
    13:00 +8°C° 0 mm 1 m/s 683 mmHg 73%
    14:00 +7°C° 0 mm 1 m/s 683 mmHg 77%
    15:00 +6°C° 0 mm 1 m/s 683 mmHg 81%
    16:00 +4°C° 0 mm 0 m/s 682 mmHg 85%
    17:00 +4°C° 0 mm 1 m/s 682 mmHg 85%
    18:00 +3°C° 0 mm 1 m/s 682 mmHg 86%
    19:00 +2°C° 0 mm 1 m/s 682 mmHg 86%
    20:00 +2°C° 0 mm 1 m/s 682 mmHg 85%
    21:00 +2°C° 0 mm 1 m/s 682 mmHg 83%
    22:00 +2°C° 0 mm 1 m/s 682 mmHg 82%
    23:00 +2°C° 0 mm 1 m/s 682 mmHg 80%
    Arată mai mult